Previsão horária em Aban

Hoje, 11 Abril, Domingo

Tempo Temperatura Precipitação Vento Pressão Humidade
00:00 -7°C° 0 mm 1 m/s 758 mmHg 89%
01:00 -8°C° 0 mm 1 m/s 758 mmHg 90%
02:00 -8°C° 0 mm 1 m/s 758 mmHg 90%
03:00 -8°C° 0 mm 0 m/s 758 mmHg 91%
04:00 -8°C° 0 mm 0 m/s 758 mmHg 87%
05:00 -7°C° 0 mm 0 m/s 759 mmHg 83%
06:00 -9°C° 0 mm 0 m/s 759 mmHg 83%
07:00 -7°C° 0 mm 0 m/s 759 mmHg 77%
08:00 -3°C° 0 mm 1 m/s 759 mmHg 71%
09:00 -1°C° 0 mm 1 m/s 759 mmHg 66%
10:00 0°C° 0 mm 1 m/s 758 mmHg 66%
11:00 -2°C° 0 mm 2 m/s 758 mmHg 67%
12:00 -1°C° 0 mm 2 m/s 757 mmHg 67%
13:00 -1°C° 0 mm 2 m/s 757 mmHg 69%
14:00 -1°C° 0 mm 2 m/s 756 mmHg 71%
15:00 -1°C° 0 mm 2 m/s 756 mmHg 73%
16:00 -1°C° 0 mm 2 m/s 755 mmHg 78%
17:00 -2°C° 0 mm 2 m/s 755 mmHg 83%
18:00 -2°C° 0 mm 2 m/s 754 mmHg 88%
19:00 -2°C° 0 mm 2 m/s 754 mmHg 89%
20:00 -2°C° 0 mm 2 m/s 753 mmHg 90%
21:00 -3°C° 0 mm 2 m/s 753 mmHg 91%
22:00 -2°C° 0.1 mm 3 m/s 752 mmHg 93%
23:00 -2°C° 0.1 mm 3 m/s 752 mmHg 95%

Amanhã, 12 Abril, Segunda-feira

Tempo Temperatura Precipitação Vento Pressão Humidade
00:00 -2°C° 0.1 mm 4 m/s 751 mmHg 97%
01:00 -2°C° 0.2 mm 4 m/s 751 mmHg 97%
02:00 -2°C° 0.2 mm 4 m/s 750 mmHg 97%
03:00 -2°C° 0.2 mm 4 m/s 750 mmHg 97%
04:00 -2°C° 0.1 mm 4 m/s 750 mmHg 97%
05:00 -1°C° 0.1 mm 3 m/s 750 mmHg 97%
06:00 -1°C° 0.1 mm 3 m/s 750 mmHg 97%
07:00 0°C° 0.1 mm 3 m/s 750 mmHg 97%
08:00 +1°C° 0.1 mm 2 m/s 750 mmHg 96%
09:00 +1°C° 0.1 mm 2 m/s 749 mmHg 96%
10:00 +1°C° 0 mm 2 m/s 749 mmHg 97%
11:00 +1°C° 0 mm 2 m/s 748 mmHg 98%
12:00 +1°C° 0 mm 3 m/s 748 mmHg 98%
13:00 0°C° 0.3 mm 3 m/s 747 mmHg 98%
14:00 -1°C° 0.3 mm 4 m/s 747 mmHg 98%
15:00 -1°C° 0.3 mm 4 m/s 746 mmHg 98%
16:00 -1°C° 0.5 mm 4 m/s 746 mmHg 98%
17:00 -1°C° 0.5 mm 4 m/s 745 mmHg 98%
18:00 -1°C° 0.5 mm 4 m/s 745 mmHg 98%
19:00 -1°C° 0.3 mm 4 m/s 744 mmHg 98%
20:00 -1°C° 0.3 mm 4 m/s 744 mmHg 98%
21:00 -1°C° 0.3 mm 4 m/s 743 mmHg 98%
22:00 -1°C° 0.2 mm 4 m/s 743 mmHg 98%
23:00 -1°C° 0.2 mm 4 m/s 742 mmHg 98%

Depois de amanhã, 13 Abril, Terça-feira

Tempo Temperatura Precipitação Vento Pressão Humidade
00:00 -1°C° 0.2 mm 4 m/s 742 mmHg 98%
01:00 -1°C° 0.3 mm 4 m/s 741 mmHg 98%
02:00 -1°C° 0.3 mm 4 m/s 741 mmHg 98%
03:00 -1°C° 0.3 mm 4 m/s 741 mmHg 98%
04:00 -1°C° 0.4 mm 4 m/s 741 mmHg 98%
05:00 -1°C° 0.4 mm 4 m/s 741 mmHg 97%
06:00 -1°C° 0.4 mm 4 m/s 742 mmHg 97%
07:00 -1°C° 0.1 mm 5 m/s 742 mmHg 94%
08:00 -1°C° 0.1 mm 5 m/s 742 mmHg 91%
09:00 -1°C° 0.1 mm 5 m/s 743 mmHg 88%
10:00 -1°C° 0 mm 5 m/s 743 mmHg 85%
11:00 -1°C° 0 mm 5 m/s 743 mmHg 82%
12:00 0°C° 0 mm 5 m/s 744 mmHg 79%
13:00 0°C° 0 mm 5 m/s 744 mmHg 77%
14:00 0°C° 0 mm 5 m/s 744 mmHg 76%
15:00 +1°C° 0 mm 4 m/s 743 mmHg 74%
16:00 0°C° 0.1 mm 4 m/s 743 mmHg 76%
17:00 -1°C° 0.1 mm 4 m/s 743 mmHg 79%
18:00 -1°C° 0.1 mm 4 m/s 743 mmHg 81%
19:00 -2°C° 0 mm 4 m/s 743 mmHg 83%
20:00 -2°C° 0 mm 4 m/s 743 mmHg 86%
21:00 -2°C° 0 mm 3 m/s 743 mmHg 88%
22:00 -3°C° 0 mm 4 m/s 743 mmHg 87%
23:00 -3°C° 0 mm 4 m/s 743 mmHg 87%

14 Abril, Quarta-feira

Tempo Temperatura Precipitação Vento Pressão Humidade
00:00 -3°C° 0 mm 4 m/s 743 mmHg 86%
01:00 -4°C° 0.1 mm 5 m/s 743 mmHg 87%
02:00 -4°C° 0.1 mm 5 m/s 743 mmHg 88%
03:00 -4°C° 0.1 mm 5 m/s 742 mmHg 89%
04:00 -4°C° 0.1 mm 5 m/s 743 mmHg 87%
05:00 -4°C° 0.1 mm 5 m/s 743 mmHg 86%
06:00 -4°C° 0.1 mm 5 m/s 743 mmHg 84%
07:00 -4°C° 0.1 mm 6 m/s 743 mmHg 84%
08:00 -3°C° 0.1 mm 6 m/s 743 mmHg 83%
09:00 -3°C° 0.1 mm 6 m/s 743 mmHg 83%
10:00 -2°C° 0.3 mm 6 m/s 743 mmHg 78%
11:00 -1°C° 0.3 mm 6 m/s 742 mmHg 73%
12:00 0°C° 0.3 mm 7 m/s 742 mmHg 68%
13:00 +1°C° 0.1 mm 6 m/s 742 mmHg 67%
14:00 +1°C° 0.1 mm 6 m/s 742 mmHg 66%
15:00 +1°C° 0.1 mm 6 m/s 742 mmHg 66%
16:00 -1°C° 0 mm 6 m/s 742 mmHg 68%
17:00 -1°C° 0 mm 5 m/s 742 mmHg 71%
18:00 -1°C° 0 mm 4 m/s 742 mmHg 73%
19:00 -2°C° 0 mm 4 m/s 742 mmHg 77%
20:00 -1°C° 0 mm 3 m/s 742 mmHg 81%
21:00 -2°C° 0 mm 2 m/s 742 mmHg 86%
22:00 -2°C° 0.2 mm 2 m/s 741 mmHg 89%
23:00 -2°C° 0.2 mm 2 m/s 741 mmHg 93%

15 Abril, Quinta-feira

Tempo Temperatura Precipitação Vento Pressão Humidade
00:00 -2°C° 0.2 mm 2 m/s 741 mmHg 96%
01:00 -2°C° 0.3 mm 2 m/s 740 mmHg 96%
02:00 0°C° 0.3 mm 1 m/s 740 mmHg 96%
03:00 0°C° 0.3 mm 1 m/s 740 mmHg 97%
04:00 0°C° 0.1 mm 1 m/s 740 mmHg 95%
05:00 -2°C° 0.1 mm 2 m/s 740 mmHg 93%
06:00 -2°C° 0.1 mm 2 m/s 741 mmHg 92%
07:00 -1°C° 0 mm 2 m/s 741 mmHg 86%
08:00 -1°C° 0 mm 2 m/s 741 mmHg 80%
09:00 0°C° 0 mm 3 m/s 742 mmHg 73%
10:00 0°C° 0 mm 3 m/s 742 mmHg 73%
11:00 +2°C° 0 mm 2 m/s 742 mmHg 73%
12:00 +2°C° 0 mm 2 m/s 742 mmHg 72%
13:00 +2°C° 0 mm 2 m/s 742 mmHg 74%
14:00 +2°C° 0 mm 2 m/s 742 mmHg 75%
15:00 +2°C° 0 mm 2 m/s 742 mmHg 76%
16:00 +2°C° 0 mm 2 m/s 742 mmHg 82%
17:00 +2°C° 0 mm 2 m/s 741 mmHg 88%
18:00 +1°C° 0 mm 2 m/s 741 mmHg 95%
19:00 +1°C° 0 mm 2 m/s 741 mmHg 95%
20:00 0°C° 0 mm 3 m/s 740 mmHg 96%
21:00 0°C° 0 mm 3 m/s 740 mmHg 96%
22:00 -1°C° 0 mm 4 m/s 739 mmHg 96%
23:00 -1°C° 0 mm 4 m/s 739 mmHg 97%

16 Abril, Sexta-feira

Tempo Temperatura Precipitação Vento Pressão Humidade
00:00 0°C° 0 mm 4 m/s 738 mmHg 97%
01:00 0°C° 0 mm 4 m/s 737 mmHg 97%
02:00 0°C° 0 mm 4 m/s 737 mmHg 97%
03:00 0°C° 0 mm 5 m/s 736 mmHg 97%
04:00 +1°C° 0 mm 5 m/s 736 mmHg 96%
05:00 +1°C° 0 mm 5 m/s 736 mmHg 95%
06:00 +1°C° 0 mm 6 m/s 735 mmHg 93%
07:00 +2°C° 0 mm 6 m/s 735 mmHg 93%
08:00 +2°C° 0 mm 7 m/s 735 mmHg 92%
09:00 +3°C° 0 mm 7 m/s 734 mmHg 91%
10:00 +3°C° 0.2 mm 7 m/s 735 mmHg 92%
11:00 +3°C° 0.2 mm 7 m/s 735 mmHg 93%
12:00 +3°C° 0.2 mm 6 m/s 735 mmHg 93%
13:00 +2°C° 0.4 mm 6 m/s 735 mmHg 94%
14:00 +2°C° 0.4 mm 5 m/s 735 mmHg 95%
15:00 +2°C° 0.4 mm 5 m/s 736 mmHg 96%
16:00 +1°C° 0.1 mm 4 m/s 736 mmHg 94%
17:00 +1°C° 0.1 mm 4 m/s 737 mmHg 91%
18:00 0°C° 0.1 mm 4 m/s 737 mmHg 88%
19:00 0°C° 0 mm 4 m/s 738 mmHg 89%
20:00 0°C° 0 mm 3 m/s 738 mmHg 89%
21:00 0°C° 0 mm 3 m/s 738 mmHg 90%
22:00 -1°C° 0 mm 2 m/s 738 mmHg 92%
23:00 -1°C° 0 mm 2 m/s 738 mmHg 94%
Mostrar mais